Weather History for Meridian, MS

Change the Weather History Date:

Thursday, July 19, 2012

  Actual Average Record
Temperature  
Mean Temperature 76 °F 81 °F  
Max Temperature 80 °F 92 °F 103 °F (1981)
Min Temperature 71 °F 70 °F 60 °F (1976)
Degree Days  
Heating Degree Days 0 0  
Month to date heating degree days 0 0  
Since 1 June heating degree days 0 0  
Since 1 July heating degree days 0 0  
Cooling Degree Days 11 16  
Month to date cooling degree days 311 295  
Year to date cooling degree days 1188 958  
Since 1 June cooling degree days 715 675  
Growing Degree Days 26 (Base 50)    
Moisture  
Dew Point 72 °F    
Average Humidity 94    
Maximum Humidity 100    
Minimum Humidity 88    
Precipitation  
Precipitation 1.07 in 0.17 in 3.30 in (1941)
Month to date precipitation 6.08 3.18  
Year to date precipitation 36.88 33.01  
Sea Level Pressure  
Sea Level Pressure 30.07 in    
Wind  
Wind Speed 6 mph (SSW)    
Max Wind Speed 13 mph    
Max Gust Speed 17 mph    
Visibility 7 miles    
Events Rain , Thunderstorm    
T = Trace of Precipitation, MM = Missing Value Source: NWS Daily Summary

Daily Weather History Graph

Daily Weather History Graph

Search for Another Location

Airport:

Trip Planner

Search our weather history database for the weather conditions in past years. The results will help you decide how hot, cold, wet, or windy it might be!

Date:

Astronomy

Jul. 19, 2012 Rise Set
Actual Time 6:01 AM CDT 8:00 PM CDT
Civil Twilight 5:34 AM CDT 8:28 PM CDT
Nautical Twilight 5:00 AM CDT 9:01 PM CDT
Astronomical Twilight 4:24 AM CDT 9:37 PM CDT
Moon 6:30 AM CDT (7/19) 8:14 PM CDT (7/19)
Length of Visible Light 14h 54m
Length of Day
13h 59m
New Moon, 0% of the Moon is Illuminated
Jul 19
New Moon
Jul 26
First Quarter
Aug 1
Full
Aug 9
Last Quarter
Aug 17
New

Hourly Weather History & Observations

Time (CDT) Temp. Heat Index Dew Point Humidity Pressure Visibility Wind Dir Wind Speed Gust Speed Precip Events Conditions
12:58 AM 71.1 °F - 70.0 °F 96% 30.05 in 7.0 mi Calm Calm - N/A   Overcast
1:20 AM 71.6 °F - 69.8 °F 94% 30.06 in 1.5 mi SSW 5.8 mph - N/A   Mostly Cloudy
1:27 AM 71.6 °F - 69.8 °F 94% 30.05 in 0.8 mi South 5.8 mph - 0.00 in Rain Light Rain
1:35 AM 71.6 °F - 69.8 °F 94% 30.05 in 1.0 mi SSE 3.5 mph - 0.02 in Rain Light Rain
1:41 AM 71.6 °F - 69.8 °F 94% 30.06 in 2.0 mi Calm Calm - 0.02 in Rain Light Rain
1:49 AM 71.6 °F - 71.6 °F 100% 30.06 in 10.0 mi NNE 5.8 mph - 0.02 in   Overcast
1:58 AM 71.1 °F - 71.1 °F 100% 30.05 in 10.0 mi NE 8.1 mph - 0.02 in   Overcast
2:19 AM 71.6 °F - 71.6 °F 100% 30.05 in 10.0 mi South 3.5 mph - N/A   Mostly Cloudy
2:58 AM 71.1 °F - 70.0 °F 96% 30.04 in 8.0 mi SW 5.8 mph - 0.00 in   Mostly Cloudy
3:21 AM 71.6 °F - 69.8 °F 94% 30.04 in 9.0 mi South 6.9 mph - 0.00 in   Scattered Clouds
3:39 AM 71.6 °F - 69.8 °F 94% 30.05 in 10.0 mi South 5.8 mph - 0.00 in   Mostly Cloudy
3:58 AM 71.1 °F - 70.0 °F 96% 30.04 in 7.0 mi South 6.9 mph - 0.00 in   Overcast
4:56 AM 71.6 °F - 69.8 °F 94% 30.04 in 2.0 mi South 5.8 mph - N/A   Overcast
4:58 AM 71.1 °F - 70.0 °F 96% 30.04 in 2.0 mi South 5.8 mph - N/A   Overcast
5:11 AM 71.6 °F - 69.8 °F 94% 30.04 in 3.0 mi South 6.9 mph - N/A   Overcast
5:56 AM 71.6 °F - 71.6 °F 100% 30.09 in 10.0 mi NNE 12.7 mph - N/A Thunderstorm Overcast
5:58 AM 72.0 °F - 71.1 °F 97% 30.09 in 10.0 mi NNE 11.5 mph - N/A Thunderstorm Overcast
6:01 AM 71.6 °F - 71.6 °F 100% 30.10 in 10.0 mi NNE 12.7 mph - N/A Thunderstorm Thunderstorm
6:24 AM 71.6 °F - 71.6 °F 100% 30.11 in 1.8 mi East 3.5 mph - 0.19 in Rain , Thunderstorm Heavy Thunderstorms and Rain
6:36 AM 71.6 °F - 71.6 °F 100% 30.11 in 3.0 mi Calm Calm - 0.31 in Rain , Thunderstorm Heavy Thunderstorms and Rain
6:58 AM 72.0 °F - 71.1 °F 97% 30.12 in 3.0 mi WNW 3.5 mph - 0.37 in Rain , Thunderstorm Heavy Thunderstorms and Rain
7:05 AM 71.6 °F - 71.6 °F 100% 30.12 in 3.0 mi Calm Calm - 0.03 in Rain , Thunderstorm Thunderstorms and Rain
7:28 AM 71.6 °F - 71.6 °F 100% 30.12 in 1.8 mi WSW 3.5 mph - 0.07 in Rain , Thunderstorm Rain
7:51 AM 71.6 °F - 71.6 °F 100% 30.12 in 2.0 mi SW 3.5 mph - N/A Rain Heavy Rain
7:58 AM 72.0 °F - 71.1 °F 97% 30.11 in 2.5 mi SW 3.5 mph - N/A Rain Heavy Rain
8:14 AM 71.6 °F - 71.6 °F 100% 30.12 in 3.0 mi South 4.6 mph - N/A Rain Rain
8:58 AM 72.0 °F - 70.0 °F 93% 30.12 in 4.0 mi SW 4.6 mph - 0.13 in Rain , Thunderstorm Rain
9:51 AM 71.6 °F - 71.6 °F 100% 30.12 in 4.0 mi SSW 5.8 mph - 0.17 in Rain Rain
9:58 AM 73.0 °F - 71.1 °F 93% 30.12 in 5.0 mi SSW 5.8 mph - 0.18 in Rain Rain
10:58 AM 75.0 °F - 72.0 °F 90% 30.12 in 10.0 mi Calm Calm - 0.02 in Rain , Thunderstorm Light Rain
11:31 AM 78.8 °F - 71.6 °F 78% 30.13 in 10.0 mi NNE 6.9 mph - 0.00 in Thunderstorm Thunderstorm
11:47 AM 77.0 °F - 73.4 °F 89% 30.13 in 9.0 mi NE 8.1 mph - 0.00 in Rain , Thunderstorm Thunderstorms and Rain
11:54 AM 75.2 °F - 73.4 °F 94% 30.13 in 4.0 mi NE 4.6 mph - 0.02 in Rain , Thunderstorm Thunderstorms and Rain
11:58 AM 75.9 °F - 73.0 °F 91% 30.12 in 4.0 mi Variable 5.8 mph - 0.02 in Rain , Thunderstorm Thunderstorms and Rain
12:26 PM 75.2 °F - 73.4 °F 94% 30.11 in 6.0 mi SSE 5.8 mph - 0.03 in Rain , Thunderstorm Thunderstorms and Rain
12:46 PM 75.2 °F - 73.4 °F 94% 30.11 in 6.0 mi SSW 8.1 mph - 0.05 in Rain , Thunderstorm Rain
12:58 PM 75.0 °F - 73.9 °F 96% 30.10 in 8.0 mi SSW 8.1 mph - 0.07 in Rain , Thunderstorm Rain
1:02 PM 75.2 °F - 73.4 °F 94% 30.10 in 10.0 mi South 6.9 mph - N/A Rain Light Rain
1:11 PM 75.2 °F - 73.4 °F 94% 30.10 in 10.0 mi South 6.9 mph - N/A Rain Light Rain
1:31 PM 75.2 °F - 73.4 °F 94% 30.09 in 10.0 mi South 9.2 mph - 0.00 in   Overcast
1:58 PM 75.0 °F - 73.9 °F 96% 30.07 in 10.0 mi SSW 5.8 mph - 0.00 in   Mostly Cloudy
2:10 PM 75.2 °F - 73.4 °F 94% 30.09 in 7.0 mi ENE 5.8 mph - 0.00 in Rain , Thunderstorm Rain
2:58 PM 75.9 °F - 73.9 °F 94% 30.05 in 10.0 mi SE 3.5 mph - 0.04 in Rain Light Rain
3:56 PM 78.8 °F - 75.2 °F 89% 30.04 in 10.0 mi SSW 4.6 mph - 0.02 in Rain Light Rain
3:58 PM 78.1 °F - 75.9 °F 93% 30.03 in 10.0 mi SSW 4.6 mph - 0.02 in Rain Light Rain
4:09 PM 78.8 °F - 75.2 °F 89% 30.04 in 10.0 mi SSW 5.8 mph - 0.00 in Rain Light Rain
4:25 PM 78.8 °F - 77.0 °F 94% 30.04 in 10.0 mi SW 6.9 mph - 0.00 in   Mostly Cloudy
4:54 PM 80.6 °F 87.1 °F 77.0 °F 89% 30.05 in 10.0 mi SW 5.8 mph - 0.00 in   Scattered Clouds
4:58 PM 80.1 °F 85.4 °F 75.9 °F 87% 30.04 in 10.0 mi SW 6.9 mph - 0.00 in   Scattered Clouds
5:33 PM 80.6 °F 86.2 °F 75.2 °F 84% 30.01 in 10.0 mi SW 9.2 mph - N/A   Mostly Cloudy
5:42 PM 78.8 °F - 75.2 °F 89% 30.01 in 10.0 mi SW 10.4 mph - N/A   Scattered Clouds
5:58 PM 79.0 °F - 75.0 °F 88% 30.01 in 10.0 mi SW 5.8 mph - N/A   Partly Cloudy
6:14 PM 78.8 °F - 75.2 °F 89% 30.02 in 10.0 mi SW 6.9 mph - N/A   Mostly Cloudy
6:58 PM 78.1 °F - 75.0 °F 90% 30.03 in 10.0 mi SW 6.9 mph - N/A   Overcast
7:06 PM 78.8 °F - 75.2 °F 89% 30.04 in 10.0 mi SW 6.9 mph - N/A   Overcast
7:58 PM 77.0 °F - 73.0 °F 88% 30.03 in 10.0 mi SSW 10.4 mph - N/A   Mostly Cloudy
8:14 PM 75.2 °F - 73.4 °F 94% 30.04 in 10.0 mi SSW 10.4 mph - N/A   Scattered Clouds
8:58 PM 73.9 °F - 72.0 °F 93% 30.02 in 10.0 mi South 11.5 mph - N/A   Mostly Cloudy
9:58 PM 73.0 °F - 71.1 °F 93% 30.04 in 10.0 mi SW 5.8 mph - N/A   Overcast
10:58 PM 73.0 °F - 71.1 °F 93% 30.04 in 10.0 mi SSW 4.6 mph - N/A   Overcast
11:58 PM 73.0 °F - 71.1 °F 93% 30.04 in 10.0 mi SSW 4.6 mph - N/A   Overcast